TimeCDT,TemperatureF,Dew PointF,Humidity,Sea Level PressureIn,VisibilityMPH,Wind Direction,Wind SpeedMPH,Gust SpeedMPH,PrecipitationIn,Events,Conditions,WindDirDegrees,DateUTC
12:13 AM,62.6,57.2,82,30.01,10.0,South,10.4,-,N/A,,Clear,180,2013-08-17 05:13:00
12:33 AM,62.6,57.2,82,30.01,10.0,South,9.2,-,N/A,,Clear,180,2013-08-17 05:33:00
12:53 AM,62.6,57.2,82,30.01,10.0,South,8.1,-,N/A,,Clear,180,2013-08-17 05:53:00
1:13 AM,60.8,57.2,88,30.00,10.0,South,8.1,-,N/A,,Clear,170,2013-08-17 06:13:00
1:33 AM,60.8,57.2,88,30.00,10.0,South,8.1,-,N/A,,Clear,170,2013-08-17 06:33:00
1:53 AM,60.8,57.2,88,30.00,10.0,South,9.2,-,N/A,,Clear,170,2013-08-17 06:53:00
2:13 AM,60.8,57.2,88,30.00,10.0,South,9.2,-,N/A,,Clear,170,2013-08-17 07:13:00
2:33 AM,60.8,57.2,88,30.01,10.0,South,9.2,-,N/A,,Clear,170,2013-08-17 07:33:00
2:53 AM,60.8,57.2,88,30.00,10.0,South,9.2,-,N/A,,Clear,170,2013-08-17 07:53:00
3:13 AM,59.0,57.2,94,30.00,10.0,South,9.2,-,N/A,,Clear,170,2013-08-17 08:13:00
3:33 AM,59.0,57.2,94,30.00,10.0,South,8.1,-,N/A,,Clear,170,2013-08-17 08:33:00
3:53 AM,59.0,57.2,94,30.00,10.0,South,8.1,-,N/A,,Clear,170,2013-08-17 08:53:00
4:13 AM,59.0,57.2,94,30.00,10.0,South,9.2,-,N/A,,Clear,170,2013-08-17 09:13:00
4:33 AM,59.0,57.2,94,30.00,10.0,South,9.2,-,N/A,,Clear,170,2013-08-17 09:33:00
4:54 AM,59.0,57.2,94,30.00,10.0,South,10.4,-,N/A,,Clear,170,2013-08-17 09:54:00
5:13 AM,59.0,57.2,94,30.00,10.0,South,9.2,-,N/A,,Clear,170,2013-08-17 10:13:00
5:33 AM,57.2,57.2,100,29.99,10.0,South,9.2,-,N/A,,Clear,170,2013-08-17 10:33:00
5:54 AM,57.2,57.2,100,29.99,10.0,South,10.4,-,N/A,,Clear,170,2013-08-17 10:54:00
6:13 AM,57.2,57.2,100,29.98,10.0,South,9.2,-,N/A,,Clear,170,2013-08-17 11:13:00
6:33 AM,59.0,57.2,94,29.98,10.0,South,10.4,-,N/A,,Clear,170,2013-08-17 11:33:00
6:54 AM,59.0,57.2,94,29.98,10.0,South,10.4,-,N/A,,Clear,180,2013-08-17 11:54:00
7:13 AM,59.0,57.2,94,29.98,10.0,South,10.4,-,N/A,,Clear,180,2013-08-17 12:13:00
7:33 AM,59.0,57.2,94,29.98,10.0,South,12.7,17.3,N/A,,Clear,170,2013-08-17 12:33:00
7:54 AM,60.8,59.0,94,29.98,10.0,South,15.0,19.6,N/A,,Clear,180,2013-08-17 12:54:00
8:13 AM,62.6,60.8,94,29.98,10.0,South,13.8,-,N/A,,Clear,180,2013-08-17 13:13:00
8:33 AM,62.6,60.8,94,29.98,10.0,South,9.2,-,N/A,,Clear,180,2013-08-17 13:33:00
8:54 AM,64.4,60.8,88,30.00,10.0,South,11.5,18.4,N/A,,Clear,190,2013-08-17 13:54:00
9:13 AM,64.4,62.6,94,30.01,10.0,South,10.4,-,N/A,,Clear,190,2013-08-17 14:13:00
9:33 AM,66.2,62.6,88,30.01,10.0,SSW,9.2,-,N/A,,Clear,200,2013-08-17 14:33:00
9:54 AM,68.0,62.6,83,30.01,10.0,South,9.2,-,N/A,,Clear,180,2013-08-17 14:54:00
10:13 AM,69.8,62.6,78,30.00,10.0,South,11.5,-,N/A,,Clear,190,2013-08-17 15:13:00
10:33 AM,71.6,64.4,78,29.98,10.0,South,15.0,-,N/A,,Clear,170,2013-08-17 15:33:00
10:52 AM,71.6,64.4,78,29.97,10.0,South,13.8,18.4,N/A,,Clear,180,2013-08-17 15:52:00
11:13 AM,73.4,64.4,73,29.98,10.0,South,11.5,18.4,N/A,,Clear,170,2013-08-17 16:13:00
11:33 AM,73.4,64.4,73,29.97,10.0,South,13.8,20.7,N/A,,Clear,180,2013-08-17 16:33:00
11:53 AM,75.2,64.4,69,29.97,10.0,South,16.1,20.7,N/A,,Clear,190,2013-08-17 16:53:00
12:13 PM,75.2,64.4,69,29.96,10.0,South,16.1,-,N/A,,Clear,190,2013-08-17 17:13:00
12:33 PM,77.0,64.4,65,29.96,10.0,South,15.0,-,N/A,,Clear,180,2013-08-17 17:33:00
12:53 PM,77.0,66.2,69,29.95,10.0,South,15.0,23.0,N/A,,Clear,180,2013-08-17 17:53:00
1:13 PM,78.8,64.4,61,29.94,10.0,South,17.3,21.9,N/A,,Clear,190,2013-08-17 18:13:00
1:34 PM,78.8,64.4,61,29.94,10.0,South,15.0,23.0,N/A,,Clear,190,2013-08-17 18:34:00
1:53 PM,80.6,66.2,61,29.93,10.0,South,17.3,25.3,N/A,,Clear,190,2013-08-17 18:53:00
2:13 PM,80.6,66.2,61,29.94,10.0,South,17.3,-,N/A,,Clear,180,2013-08-17 19:13:00
2:33 PM,80.6,66.2,61,29.93,10.0,SSW,16.1,24.2,N/A,,Clear,200,2013-08-17 19:33:00
2:53 PM,80.6,66.2,61,29.93,10.0,SSW,16.1,23.0,N/A,,Clear,200,2013-08-17 19:53:00
3:13 PM,80.6,66.2,61,29.92,10.0,South,16.1,21.9,N/A,,Clear,190,2013-08-17 20:13:00
3:33 PM,80.6,66.2,61,29.91,10.0,South,18.4,23.0,N/A,,Clear,190,2013-08-17 20:33:00
3:53 PM,80.6,66.2,61,29.91,10.0,South,17.3,21.9,N/A,,Clear,190,2013-08-17 20:53:00
4:13 PM,80.6,66.2,61,29.90,10.0,South,12.7,19.6,N/A,,Clear,190,2013-08-17 21:13:00
4:33 PM,80.6,66.2,61,29.90,10.0,South,16.1,21.9,N/A,,Clear,190,2013-08-17 21:33:00
4:53 PM,80.6,66.2,61,29.90,10.0,South,17.3,23.0,N/A,,Clear,190,2013-08-17 21:53:00
5:13 PM,80.6,66.2,61,29.89,10.0,South,16.1,25.3,N/A,,Clear,180,2013-08-17 22:13:00
5:33 PM,80.6,66.2,61,29.89,10.0,South,16.1,23.0,N/A,,Clear,180,2013-08-17 22:33:00
5:53 PM,80.6,68.0,65,29.89,10.0,South,12.7,19.6,N/A,,Clear,180,2013-08-17 22:53:00
6:13 PM,80.6,66.2,61,29.89,10.0,South,13.8,24.2,N/A,,Clear,190,2013-08-17 23:13:00
6:33 PM,80.6,68.0,65,29.89,10.0,South,12.7,-,N/A,,Clear,190,2013-08-17 23:33:00
6:53 PM,80.6,68.0,65,29.88,10.0,South,11.5,17.3,N/A,,Clear,190,2013-08-17 23:53:00
7:13 PM,80.6,68.0,65,29.88,10.0,South,10.4,-,N/A,,Clear,190,2013-08-18 00:13:00
7:33 PM,78.8,68.0,69,29.88,10.0,South,11.5,-,N/A,,Clear,190,2013-08-18 00:33:00
7:53 PM,77.0,68.0,74,29.88,10.0,South,10.4,-,N/A,,Clear,190,2013-08-18 00:53:00
8:13 PM,75.2,68.0,78,29.89,10.0,South,6.9,-,N/A,,Clear,190,2013-08-18 01:13:00
8:33 PM,73.4,68.0,83,29.89,10.0,South,5.8,-,N/A,,Clear,180,2013-08-18 01:33:00
8:53 PM,71.6,68.0,88,29.89,10.0,South,5.8,-,N/A,,Clear,170,2013-08-18 01:53:00
9:13 PM,71.6,68.0,88,29.89,10.0,South,8.1,-,N/A,,Clear,170,2013-08-18 02:13:00
9:33 PM,71.6,66.2,83,29.89,10.0,South,9.2,-,N/A,,Clear,170,2013-08-18 02:33:00
9:53 PM,71.6,66.2,83,29.89,10.0,South,8.1,-,N/A,,Clear,180,2013-08-18 02:53:00
10:13 PM,71.6,66.2,83,29.89,10.0,South,9.2,-,N/A,,Clear,170,2013-08-18 03:13:00
10:33 PM,69.8,66.2,88,29.89,10.0,South,9.2,-,N/A,,Clear,170,2013-08-18 03:33:00
10:53 PM,69.8,66.2,88,29.89,10.0,South,10.4,-,N/A,,Clear,180,2013-08-18 03:53:00
11:13 PM,69.8,66.2,88,29.88,10.0,South,11.5,17.3,N/A,,Clear,170,2013-08-18 04:13:00
11:33 PM,71.6,66.2,83,29.88,10.0,South,11.5,-,N/A,,Clear,180,2013-08-18 04:33:00
11:53 PM,71.6,66.2,83,29.88,10.0,South,11.5,-,N/A,,Clear,180,2013-08-18 04:53:00